Location: Devore Heights
(34.2372°N, 117.4156°W)
Time: 06:43:58
(UTC+00:00)

Vanguard 1 Rocket - Pass Details

Date: 22 September 2024
Orbit: 650 x 4218 km, 34.3° (Epoch: 09 October)

Event Time Altitude Azimuth Distance (km) Brightness Sun altitude
Rises 08:53:43 0° 231° (SW) 3,994 - -51.8°
Reaches altitude 10° 08:55:56 10° 227° (SW) 3,309 - -51.6°
Maximum altitude 09:04:23 60° 150° (SSE) 2,203 - -50.7°
Exits shadow 09:08:34 45° 98° (E) 2,924 9.8 -50.2°
Drops below altitude 10° 09:21:09 10° 76° (ENE) 6,223 12.0 -48.6°
Sets 09:27:10 0° 74° (ENE) 7,723 12.7 -47.8°
